VU3EFG Weather Reports


time (UTC)temp
F
wind
direction
speed
knots
gust
knots
rain 1hr
in
rain 24hr
in
rain mn
in
humidity
%
barometer
mb
20260505212013 80 289 1.7 4.3 0.00 0.00 0.00 95 1000.7
20260505211513 80 292 1.7 4.3 0.00 0.00 0.00 95 1001.0
20260505210512 81 292 1.7 4.3 0.00 0.00 0.00 95 1001.1
20260505205513 81 283 1.7 4.3 0.00 0.00 0.00 95 1001.2
20260505204512 81 270 0.9 2.6 0.00 0.00 0.00 95 1001.2
20260505204013 81 277 1.7 4.3 0.00 0.00 0.00 95 1001.3
20260505203513 81 292 0.0 2.6 0.00 0.00 0.00 95 1001.3
20260505203012 81 292 1.7 2.6 0.00 0.00 0.00 95 1001.4
20260505202513 81 292 0.9 2.6 0.00 0.00 0.00 95 1001.4
20260505202012 81 270 1.7 2.6 0.00 0.00 0.00 95 1001.4
20260505201012 81 292 0.0 2.6 0.00 0.00 0.00 95 1001.6
20260505200512 81 304 1.7 2.6 0.00 0.00 0.00 95 1001.8
20260505200012 81 276 1.7 4.3 0.00 0.00 0.00 95 1001.8
20260505194012 81 292 2.6 4.3 0.00 0.00 0.00 95 1002.1
20260505193512 81 310 1.7 6.1 0.00 0.00 0.00 95 1002.1
20260505193012 81 292 1.7 5.2 0.00 0.00 0.00 95 1002.5
20260505192512 81 315 1.7 2.6 0.00 0.00 0.00 95 1002.5
20260505191512 81 283 2.6 4.3 0.00 0.00 0.00 95 1002.5
20260505191012 81 284 2.6 5.2 0.00 0.00 0.00 95 1002.5
20260505190012 81 292 0.9 2.6 0.00 0.00 0.00 95 1002.8
20260505185512 81 294 1.7 4.3 0.00 0.00 0.00 94 1003.0
20260505184513 81 292 0.9 2.6 0.00 0.00 0.00 94 1003.0
20260505184013 81 270 1.7 2.6 0.00 0.00 0.00 94 1003.4
20260505183012 82 282 0.9 2.6 0.00 0.00 0.00 94 1003.5
20260505182512 82 283 1.7 4.3 0.00 0.00 0.00 93 1003.5
20260505182012 82 270 0.9 2.6 0.00 0.00 0.00 93 1003.5
20260505181512 82 284 1.7 2.6 0.00 0.00 0.00 93 1003.6
20260505180512 82 292 1.7 2.6 0.00 0.00 0.00 93 1003.9
20260505175512 82 278 1.7 4.3 0.00 0.00 0.00 93 1004.0
20260505175013 82 292 1.7 2.6 0.00 0.00 0.00 93 1004.0
20260505174512 82 287 2.6 4.3 0.00 0.00 0.00 93 1004.0
20260505174012 82 280 1.7 2.6 0.00 0.00 0.00 93 1004.2
20260505173513 82 292 1.7 4.3 0.00 0.00 0.00 93 1004.2
20260505173012 82 279 2.6 4.3 0.00 0.00 0.00 93 1004.4
20260505172512 82 297 2.6 4.3 0.00 0.00 0.00 93 1004.4
20260505172011 82 308 1.7 4.3 0.00 0.00 0.00 93 1004.4
20260505171512 82 315 1.7 5.2 0.00 0.00 0.00 93 1004.4
20260505170012 83 292 2.6 4.3 0.00 0.00 0.00 93 1004.4
20260505165511 83 320 1.7 1.7 0.00 0.00 0.00 93 1004.3
20260505164512 83 292 1.7 4.3 0.00 0.00 0.00 93 1004.3
20260505164013 83 292 2.6 2.6 0.00 0.00 0.00 93 1004.2
20260505163012 83 325 1.7 1.7 0.00 0.00 0.00 92 1004.1
20260505162512 83 338 1.7 2.6 0.00 0.00 0.00 92 1004.1
20260505162012 83 309 1.7 2.6 0.00 0.00 0.00 92 1004.1
20260505161012 83 292 0.9 2.6 0.00 0.00 0.00 92 1004.1
20260505160512 83 285 1.7 2.6 0.00 0.00 0.00 92 1004.1
20260505153011 84 276 1.7 4.3 0.00 0.00 0.00 90 1003.9
20260505152511 84 292 1.7 2.6 0.00 0.00 0.00 90 1003.9
20260505152012 84 279 1.7 4.3 0.00 0.00 0.00 90 1003.9
20260505151512 84 283 2.6 4.3 0.00 0.00 0.00 90 1003.8
20260505151012 84 280 2.6 5.2 0.00 0.00 0.00 90 1003.8
20260505150512 84 270 1.7 6.1 0.00 0.00 0.00 90 1003.8
20260505140512 85 277 2.6 5.2 0.00 0.00 0.00 85 1002.9
20260505124511 87 273 4.3 7.0 0.00 0.00 0.00 72 1001.9
20260505124012 87 270 3.5 6.1 0.00 0.00 0.00 72 1001.7
20260505123512 88 259 3.5 6.1 0.00 0.00 0.00 71 1001.7
20260505123012 88 283 2.6 4.3 0.00 0.00 0.00 71 1001.3
20260505122511 88 260 2.6 5.2 0.00 0.00 0.00 71 1001.3
20260505122011 89 270 2.6 7.0 0.00 0.00 0.00 70 1001.2
20260505121512 89 276 4.3 6.1 0.00 0.00 0.00 69 1001.1
20260505121011 90 282 2.6 5.2 0.00 0.00 0.00 68 1001.1
20260505120512 90 261 2.6 4.3 0.00 0.00 0.00 67 1001.0
20260505120012 90 270 2.6 6.1 0.00 0.00 0.00 66 1001.0
20260505115012 91 279 4.3 7.0 0.00 0.00 0.00 65 1000.9
20260505114512 91 235 2.6 6.1 0.00 0.00 0.00 64 1000.9
20260505114011 92 269 2.6 4.3 0.00 0.00 0.00 63 1000.7
20260505113511 91 270 1.7 5.2 0.00 0.00 0.00 64 1000.7
20260505113012 92 264 2.6 5.2 0.00 0.00 0.00 64 1000.6
20260505112511 92 264 2.6 7.0 0.00 0.00 0.00 65 1000.6
20260505112011 91 264 2.6 5.2 0.00 0.00 0.00 66 1000.6
20260505111012 92 225 3.5 6.1 0.00 0.00 0.00 64 1000.6
20260505110511 92 273 3.5 5.2 0.00 0.00 0.00 64 1000.5
20260505102012 93 227 2.6 4.3 0.00 0.00 0.00 65 1000.7
20260505101011 95 225 0.9 6.1 0.00 0.00 0.00 63 1000.8
20260505100511 94 236 1.7 4.3 0.00 0.00 0.00 63 1000.8
20260505095511 94 212 1.7 2.6 0.00 0.00 0.00 62 1000.9
20260505095011 96 232 0.9 2.6 0.00 0.00 0.00 61 1000.9
20260505094011 96 235 1.7 2.6 0.00 0.00 0.00 59 1001.1
20260505093011 97 209 1.7 8.7 0.00 0.00 0.00 60 1001.3
20260505092512 97 277 2.6 5.2 0.00 0.00 0.00 59 1001.3
20260505092012 97 292 1.7 4.3 0.00 0.00 0.00 60 1001.3
20260505091011 96 244 2.6 7.0 0.00 0.00 0.00 61 1001.6
20260505090512 97 233 2.6 5.2 0.00 0.00 0.00 62 1001.8
20260505085512 96 174 2.6 4.3 0.00 0.00 0.00 63 1002.1
20260505084511 96 231 2.6 6.1 0.00 0.00 0.00 63 1002.1
20260505084011 97 266 2.6 4.3 0.00 0.00 0.00 62 1002.4
20260505083511 97 222 2.6 5.2 0.00 0.00 0.00 61 1002.4
20260505083011 98 220 2.6 4.3 0.00 0.00 0.00 59 1002.6
20260505082511 98 245 2.6 7.0 0.00 0.00 0.00 59 1002.6
20260505082011 97 207 3.5 7.8 0.00 0.00 0.00 61 1002.6
20260505081511 98 168 3.5 6.1 0.00 0.00 0.00 59 1002.9
20260505081011 97 279 1.7 4.3 0.00 0.00 0.00 60 1002.9
20260505080511 98 179 2.6 4.3 0.00 0.00 0.00 60 1003.1
20260505080011 97 202 1.7 5.2 0.00 0.00 0.00 61 1003.1
20260505075510 95 158 1.7 5.2 0.00 0.00 0.00 62 1003.2
20260505075011 97 90 2.6 5.2 0.00 0.00 0.00 60 1003.3
20260505074511 96 205 4.3 6.1 0.00 0.00 0.00 60 1003.3
20260505074011 97 228 3.5 6.1 0.00 0.00 0.00 59 1003.5
20260505073511 98 249 3.5 7.8 0.00 0.00 0.00 59 1003.5
20260505073011 97 235 2.6 6.1 0.00 0.00 0.00 60 1003.8
20260505072511 98 275 4.3 7.0 0.00 0.00 0.00 60 1003.8
20260505072011 97 224 2.6 5.2 0.00 0.00 0.00 60 1003.8
20260505071011 97 189 3.5 7.0 0.00 0.00 0.00 61 1004.0
20260505070511 97 185 2.6 4.3 0.00 0.00 0.00 61 1004.2
20260505070011 96 213 2.6 5.2 0.00 0.00 0.00 62 1004.2
20260505064511 96 185 2.6 5.2 0.00 0.00 0.00 63 1004.3
20260505064011 95 235 2.6 4.3 0.00 0.00 0.00 63 1004.5
20260505063511 95 261 2.6 4.3 0.00 0.00 0.00 64 1004.5
20260505063011 94 193 4.3 6.1 0.00 0.00 0.00 66 1004.7
20260505062511 94 188 4.3 7.8 0.00 0.00 0.00 65 1004.7
20260505062011 94 257 3.5 6.1 0.00 0.00 0.00 66 1004.7
20260505061511 94 154 2.6 4.3 0.00 0.00 0.00 65 1004.8
20260505061010 93 270 2.6 6.1 0.00 0.00 0.00 67 1004.8
20260505060511 93 283 4.3 5.2 0.00 0.00 0.00 67 1004.8
20260505060011 93 270 2.6 5.2 0.00 0.00 0.00 67 1004.8
20260505055510 93 224 3.5 6.1 0.00 0.00 0.00 67 1004.9
20260505055010 93 205 2.6 5.2 0.00 0.00 0.00 67 1004.9
20260505054510 93 218 2.6 5.2 0.00 0.00 0.00 68 1004.9
20260505053511 93 198 4.3 6.1 0.00 0.00 0.00 66 1004.9
20260505052510 93 261 2.6 4.3 0.00 0.00 0.00 66 1004.9
20260505052010 92 220 1.7 4.3 0.00 0.00 0.00 67 1004.9
20260505051512 92 216 3.5 6.1 0.00 0.00 0.00 67 1004.9
20260505051012 93 202 2.6 6.1 0.00 0.00 0.00 66 1004.9
20260505050513 93 188 1.7 5.2 0.00 0.00 0.00 65 1004.8
20260505041010 96 338 0.9 2.6 0.00 0.00 0.00 58 1004.9
20260505040511 96 349 1.7 5.2 0.00 0.00 0.00 58 1004.9
20260505040012 98 344 1.7 5.2 0.00 0.00 0.00 56 1004.9
20260505035511 97 270 2.6 4.3 0.00 0.00 0.00 58 1004.9
20260505034510 96 306 2.6 4.3 0.00 0.00 0.00 61 1004.9
20260505033511 95 293 2.6 4.3 0.00 0.00 0.00 62 1004.9
20260505032511 94 292 1.7 5.2 0.00 0.00 0.00 64 1004.8
20260505032010 93 283 1.7 4.3 0.00 0.00 0.00 66 1004.8
20260505031011 94 303 2.6 5.2 0.00 0.00 0.00 64 1004.9
20260505030511 94 292 1.7 2.6 0.00 0.00 0.00 64 1004.9
20260505030011 93 292 0.0 1.7 0.00 0.00 0.00 66 1004.9
20260505025010 92 293 0.9 2.6 0.00 0.00 0.00 66 1004.7
20260505024510 92 331 1.7 1.7 0.00 0.00 0.00 69 1004.7
20260505024011 90 315 1.7 2.6 0.00 0.00 0.00 72 1004.5
20260505023011 88 292 2.6 2.6 0.00 0.00 0.00 76 1004.4
20260505022510 86 326 1.7 2.6 0.00 0.00 0.00 78 1004.4
20260505022010 85 305 1.7 2.6 0.00 0.00 0.00 82 1004.3
20260505021510 84 292 1.7 1.7 0.00 0.00 0.00 83 1004.2
20260505021011 83 292 0.0 0.0 0.00 0.00 0.00 86 1004.2
20260505020011 81 292 0.9 1.7 0.00 0.00 0.00 89 1004.0
20260505015510 81 292 0.9 1.7 0.00 0.00 0.00 90 1004.0
20260505015010 80 310 0.0 0.0 0.00 0.00 0.00 90 1004.0
20260505014511 80 300 0.0 0.0 0.00 0.00 0.00 91 1004.0
20260505014010 80 315 0.0 0.0 0.00 0.00 0.00 91 1003.8
20260505013510 80 315 0.0 0.9 0.00 0.00 0.00 90 1003.8
20260505013010 79 303 1.7 1.7 0.00 0.00 0.00 91 1003.6
20260505012510 79 338 0.9 1.7 0.00 0.00 0.00 92 1003.6
20260505012011 79 312 1.7 2.6 0.00 0.00 0.00 92 1003.6
20260505011511 78 309 0.0 0.0 0.00 0.00 0.00 93 1003.8
20260505011010 78 315 0.0 0.0 0.00 0.00 0.00 94 1003.8
20260505010510 78 338 0.0 0.0 0.00 0.00 0.00 95 1003.7
20260505010010 78 315 0.0 0.0 0.00 0.00 0.00 96 1003.7
20260505005510 77 315 0.0 0.0 0.00 0.00 0.00 96 1003.7
20260505005010 77 338 0.0 0.0 0.00 0.00 0.00 97 1003.7
20260505004510 77 326 0.0 0.0 0.00 0.00 0.00 97 1003.7
20260505004010 77 317 0.0 0.0 0.00 0.00 0.00 97 1003.4
20260505003511 77 338 0.0 0.0 0.00 0.00 0.00 97 1003.4
20260505003010 77 321 0.0 0.0 0.00 0.00 0.00 97 1003.5
20260505002510 77 292 0.0 0.0 0.00 0.00 0.00 97 1003.5
20260505002010 77 315 0.0 0.0 0.00 0.00 0.00 97 1003.4
20260505001010 77 292 0.0 0.0 0.00 0.00 0.00 97 1003.4
20260505000511 77 292 0.0 0.0 0.00 0.00 0.00 97 1003.4
20260505000010 77 292 0.0 0.0 0.00 0.00 0.00 97 1003.4
20260504235010 77 328 0.0 0.0 0.00 0.00 0.00 96 1003.3
20260504234510 77 315 0.0 0.0 0.00 0.00 0.00 96 1003.3
20260504234010 77 315 0.0 0.0 0.00 0.00 0.00 96 1003.2
20260504233510 78 315 0.0 0.0 0.00 0.00 0.00 96 1003.2
20260504233010 78 315 0.0 0.0 0.00 0.00 0.00 96 1003.0
20260504232510 77 315 0.0 0.0 0.00 0.00 0.00 96 1003.0
20260504232010 78 315 0.0 0.0 0.00 0.00 0.00 96 1002.8
20260504231510 78 315 0.0 0.0 0.00 0.00 0.00 96 1002.8
20260504231010 77 328 0.0 0.0 0.00 0.00 0.00 96 1002.8
20260504230511 78 315 0.0 0.0 0.00 0.00 0.00 96 1002.7
20260504230010 78 315 0.0 0.0 0.00 0.00 0.00 96 1002.7
20260504225510 78 315 0.0 0.0 0.00 0.00 0.00 95 1002.6
20260504224510 78 315 0.0 0.0 0.00 0.00 0.00 95 1002.6
20260504223510 78 338 0.0 0.0 0.00 0.00 0.00 94 1002.4
20260504223010 78 338 0.0 0.0 0.00 0.00 0.00 94 1002.2
20260504222510 78 338 0.0 0.0 0.00 0.00 0.00 94 1002.2
20260504222009 78 338 0.0 0.0 0.00 0.00 0.00 94 1002.2
20260504221510 78 3 1.7 2.6 0.00 0.00 0.00 94 1002.1
20260504221010 78 297 0.0 1.7 0.00 0.00 0.00 94 1002.1
20260504220510 78 292 0.9 1.7 0.00 0.00 0.00 94 1002.0
20260504215510 78 292 0.0 1.7 0.00 0.00 0.00 94 1001.8
20260504215010 79 321 0.0 1.7 0.00 0.00 0.00 94 1001.8
20260504214510 78 315 0.0 1.7 0.00 0.00 0.00 94 1001.8
20260504214010 78 328 1.7 1.7 0.00 0.00 0.00 94 1002.0
20260504213511 78 292 0.0 0.0 0.00 0.00 0.00 93 1002.0
20260504212510 79 292 0.0 0.0 0.00 0.00 0.00 93 1002.0